Location: Austin
(30.3000°N, 97.7500°W)
Time: 00:35:54
(UTC-05:00)

Terra - Pass Details

Date: 20 April 2024
Orbit: 691 x 696 km, 98.0° (Epoch: 29 May)

Event Time Altitude Azimuth Distance (km) Brightness Sun altitude
Exits shadow 21:58:07 13° 41° (NE) 1,966 4.0 -23.9°
Drops below altitude 10° 21:59:00 10° 31° (NNE) 2,157 4.3 -24.0°
Sets 22:02:01 0° 11° (N) 3,077 5.4 -24.6°
